Tracking 28790 objects as of 19-Apr-2024
HD Live streaming from Space Station
objects crossing your sky now

CZ-2C DEB

Track CZ-2C DEB now!
10-day predictions


NORAD ID: 40263
Int'l Code: 2014-059C
Perigee: 628.2 km
Apogee: 753.4 km
Inclination: 98.2 °
Period: 98.4 minutes
Semi major axis: 7061 km
RCS: Unknown
Launch date: September 28, 2014
Source: People's Republic of China (PRC)
Launch site: Jiuquan Satellite Launch Center, China (JSC)

Note: This is SATELLITE DEBRIS
Your satellite tracking list
Your tracking list is empty




NASA's NSSDC Master Catalog

Two Line Element Set (TLE):
1 40263U 14059C   24109.46839829  .00014107  00000-0  26089-2 0  9999
2 40263  98.2004 198.3732 0088597 295.3113  63.8930 14.62949793506424
Source of the keplerian elements: AFSPC